Wind_Speed
3 3 3 4 6 6 4 5 6 7 7 8 8 8 9 9 10 9 9 9 9 8 8 7 7 6 5 5 4 4 4 4 3 2 2 2 1 1 1 1 1 2 3 4 4 5 6 6 7
1 2 2 4 5 3 3 4 5 6 6 7 8 8 9 9 10 9 9 9 8 8 8 7 7 6 6 5 4 4 4 4 3 3 2 2 1 1 0 1 1 2 2 3 4 5 6 6 7
1 1 1 3 2 0 1 3 4 5 6 7 8 8 9 9 9 9 9 9 9 9 9 8 7 6 6 5 4 3 4 4 4 3 3 2 1 1 1 1 1 2 2 3 5 5 6 6 6
2 1 0 0 1 1 1 2 3 4 6 7 8 8 8 9 9 9 9 9 9 9 9 8 8 7 6 5 5 4 4 4 4 4 3 3 2 1 1 1 2 2 3 4 4 5 6 6 7
3 2 1 2 2 2 2 2 3 4 6 7 8 8 8 8 9 9 9 9 9 9 9 8 8 7 6 5 5 4 4 3 3 3 3 3 3 2 1 2 2 2 3 4 4 5 6 7 7
4 3 3 4 4 4 3 2 2 3 5 6 7 7 8 8 9 9 8 9 9 9 8 7 7 7 6 5 5 4 4 4 4 4 3 3 3 2 2 2 2 3 3 4 3 4 4 5 6
6 5 5 6 5 4 3 2 2 3 4 6 7 7 8 8 8 9 8 9 9 9 8 7 7 7 6 6 5 5 4 3 3 4 4 3 3 2 2 3 3 3 3 3 3 3 3 3 4
7 6 6 6 6 5 4 3 2 3 4 5 6 7 8 8 9 9 9 9 9 9 8 8 7 7 7 7 6 6 5 4 4 3 3 3 3 2 2 3 3 3 3 3 3 2 2 3 5
8 7 7 7 7 6 5 3 3 3 4 5 6 7 7 8 8 9 8 9 9 9 8 7 7 7 7 6 6 5 6 5 4 3 3 3 3 3 4 4 4 4 3 3 3 2 1 3 4
9 8 9 9 8 7 5 5 4 4 5 6 6 6 6 7 8 8 8 9 9 9 8 8 7 7 7 7 6 6 6 6 5 4 4 4 4 4 4 4 4 4 3 3 3 2 2 3 4
10 10 10 10 9 8 7 6 6 6 6 7 7 7 6 7 7 8 8 8 8 9 9 8 7 7 7 7 7 7 7 6 6 5 5 5 5 5 5 4 5 5 5 4 4 3 3 4 4
12 11 11 11 11 10 8 7 7 7 8 8 8 7 7 7 8 8 8 8 8 9 9 8 7 8 8 7 8 8 7 7 7 6 6 7 6 6 6 6 5 5 5 5 4 4 4 4 5
13 13 12 12 12 11 9 9 9 9 9 9 9 8 9 9 9 9 9 9 9 9 8 8 7 7 8 8 9 9 8 8 7 7 7 7 7 6 6 6 6 5 6 5 5 5 5 5 5
13 13 13 13 13 12 11 10 10 10 10 10 10 9 9 10 10 9 9 9 9 9 9 9 8 8 8 9 9 9 9 8 7 7 7 7 7 7 7 6 6 5 5 6 5 5 5 5 5
14 14 14 14 14 13 13 12 11 11 11 11 10 9 9 10 10 10 9 10 10 10 10 9 9 8 9 10 10 10 10 9 9 8 8 8 7 7 7 6 6 6 6 6 6 5 5 5 5
14 14 14 15 15 15 13 12 12 12 12 12 11 10 10 10 10 11 11 11 11 11 11 10 10 10 10 10 11 11 10 10 10 9 8 8 8 8 7 7 7 7 6 6 6 6 6 5 6
15 15 15 16 15 15 14 13 13 13 13 12 11 11 11 11 12 12 12 12 12 12 12 12 11 11 11 11 12 12 11 11 11 10 9 8 9 8 8 8 7 7 7 6 6 5 6 6 6
17 16 16 16 16 16 15 15 15 14 13 12 12 12 12 12 13 14 12 12 13 13 13 13 12 12 12 12 12 12 12 11 11 11 10 9 10 9 9 9 8 8 7 7 6 5 6 6 6
18 17 17 17 17 16 16 16 16 15 14 13 13 13 12 13 14 14 14 13 13 13 13 13 13 13 13 13 12 12 12 12 11 11 11 11 10 10 10 10 9 9 8 7 7 6 6 5 5
17 17 17 18 17 16 16 16 16 15 14 14 14 14 14 14 15 15 15 14 14 14 14 13 13 14 14 13 13 12 12 11 11 11 11 11 11 11 10 10 10 9 9 9 7 7 7 6 6
16 17 18 18 17 17 17 16 16 16 15 14 14 14 14 15 15 16 15 15 15 15 15 15 15 15 15 14 14 13 13 12 12 12 12 12 11 10 9 8 9 9 9 9 9 8 8 8 7
16 17 18 18 17 17 17 15 16 16 15 15 15 15 15 15 15 15 16 15 15 15 16 16 17 17 16 15 15 14 14 13 12 11 11 11 10 9 9 9 8 9 9 9 9 9 9 9 10
16 16 17 17 17 16 16 15 15 16 16 16 16 16 15 16 16 16 15 15 15 16 16 17 17 18 17 16 16 15 14 13 12 11 11 11 11 11 10 9 9 9 10 10 10 10 10 10 10
16 16 16 16 15 15 16 15 15 16 17 16 17 16 16 16 17 16 16 16 16 16 16 17 17 18 18 18 17 17 15 14 13 13 12 12 12 12 11 10 10 10 11 11 11 11 11 11 12
15 14 14 14 15 15 16 16 16 17 17 17 17 17 17 16 16 16 16 16 16 17 17 18 18 19 18 18 19 18 17 15 15 15 14 13 13 12 12 12 11 11 12 12 12 13 13 13 13
16 15 15 14 14 15 18 17 16 16 17 17 17 17 16 16 16 16 16 16 17 18 18 19 20 19 19 18 18 18 18 17 17 16 15 15 15 14 13 13 13 12 13 13 14 13 14 14 13
15 16 17 16 16 16 16 18 17 17 17 18 18 18 17 17 17 17 17 17 18 19 20 20 20 19 20 19 19 18 18 18 17 17 17 16 16 15 15 14 14 14 13 14 14 15 15 15 15
16 16 17 16 16 16 17 17 17 17 18 18 19 18 18 18 18 18 19 19 20 21 21 20 20 20 20 20 19 19 19 19 19 19 19 18 17 17 17 16 15 15 14 15 15 15 16 17 17
15 16 17 16 17 16 16 16 17 18 18 19 19 19 18 18 18 19 20 20 21 22 22 21 20 20 20 20 19 19 20 20 20 20 21 20 19 19 19 18 17 17 16 15 15 16 16 17 18
16 16 17 17 18 18 16 17 18 19 19 19 19 19 19 19 19 19 20 20 21 22 21 21 20 20 20 20 19 20 20 21 20 20 20 20 20 20 20 19 18 18 18 17 17 17 17 18 18
Wind_Direction
71 68 60 50 53 51 47 52 54 53 54 50 46 48 46 43 41 36 32 31 27 27 27 24 18 16 19 20 18 21 25 30 34 36 43 48 55 77 206 226 223 237 245 244 243 247 244 244 246
95 77 65 56 71 46 26 47 47 45 46 44 39 40 40 39 37 33 29 26 21 21 18 15 11 10 13 16 19 26 31 32 34 31 35 45 53 49 118 248 247 249 250 256 252 252 246 242 242
153 121 76 65 84 154 350 35 46 43 39 35 31 30 30 31 29 25 22 19 17 15 13 11 11 6 8 14 18 25 35 35 32 28 26 33 33 28 357 308 280 270 266 266 255 250 243 240 241
196 186 64 45 259 267 307 359 26 30 26 23 20 21 20 21 18 16 14 14 12 8 10 10 9 6 5 9 14 22 31 30 26 21 15 18 20 13 346 329 303 282 275 269 256 253 248 246 243
215 207 242 263 258 270 295 323 1 18 15 14 13 15 13 16 10 8 6 8 6 5 9 11 8 4 3 1 6 13 18 20 17 12 10 6 4 5 335 334 318 299 294 279 259 257 253 252 249
219 223 234 253 261 270 280 317 354 360 5 6 6 4 2 3 3 4 3 6 4 2 2 1 1 3 2 359 356 357 4 7 14 12 8 2 351 342 328 318 318 310 311 288 272 265 261 254 247
227 228 237 252 266 268 266 285 336 349 350 358 0 357 359 2 3 3 6 7 6 2 359 357 354 355 356 354 350 349 352 360 1 4 358 349 352 342 327 318 326 322 322 306 284 270 258 250 242
235 238 247 250 253 254 258 270 295 318 335 348 356 358 358 1 4 3 3 4 3 0 356 352 351 348 345 345 342 345 346 346 348 352 345 337 341 335 319 308 321 322 314 305 289 281 245 244 234
236 235 242 245 243 247 250 261 283 302 319 334 341 349 353 354 357 357 357 358 357 355 351 347 346 344 345 347 346 341 341 339 336 334 328 314 315 318 312 305 312 319 311 301 289 274 263 248 238
233 229 238 244 246 246 248 262 275 295 316 324 328 335 344 349 351 352 352 353 351 349 347 344 342 341 341 343 340 333 333 330 327 321 315 306 305 307 304 304 303 306 301 300 303 267 250 244 247
232 232 238 244 246 248 249 260 269 287 302 311 319 327 338 341 342 344 342 345 347 342 340 339 337 336 335 338 335 327 322 321 315 313 309 303 297 297 295 295 296 296 292 290 292 278 268 240 242
233 237 242 245 246 249 250 254 264 274 287 297 308 320 326 328 329 330 332 333 337 336 336 334 332 330 328 330 328 324 316 314 310 305 301 300 293 287 287 284 288 286 286 287 293 293 278 262 238
236 239 242 245 247 250 253 257 262 271 285 296 302 307 311 314 314 317 322 324 327 331 332 330 328 325 324 324 323 321 315 312 309 305 299 294 293 288 283 281 279 279 280 284 289 295 278 272 248
240 240 242 244 247 250 254 261 267 272 281 288 295 298 305 308 309 310 314 317 322 323 323 323 320 320 320 317 316 315 313 309 307 304 300 293 293 293 286 280 276 272 274 279 283 289 276 266 257
243 244 243 244 247 251 259 264 268 270 275 282 291 295 302 305 306 307 310 311 314 314 314 316 312 314 313 310 309 310 308 305 301 297 299 294 290 292 287 282 278 270 267 270 276 279 272 262 253
242 244 246 248 250 253 257 261 269 270 274 280 287 291 296 297 300 302 302 304 306 308 307 308 307 309 308 305 303 304 303 298 297 289 292 292 289 288 285 281 279 275 264 263 271 273 273 263 247
242 243 244 251 252 255 255 259 265 267 271 276 282 286 289 292 296 298 295 298 302 303 302 302 303 305 306 303 299 295 298 294 294 289 285 286 287 287 284 284 280 276 266 261 263 268 270 266 249
239 240 244 249 252 253 255 257 260 264 270 273 278 283 286 288 292 295 293 296 299 299 300 301 302 300 302 302 297 291 292 290 288 292 282 280 280 280 280 280 279 275 266 259 256 260 262 258 250
237 238 242 246 252 254 256 258 260 263 266 270 273 279 284 287 291 294 292 295 297 297 298 298 300 298 299 300 295 287 287 288 286 292 284 281 280 278 278 276 269 268 263 255 250 248 248 247 238
237 239 242 248 253 253 256 257 258 261 264 268 271 275 280 284 288 290 290 292 294 294 295 295 295 296 294 294 290 282 282 285 287 287 283 282 280 289 286 269 263 262 259 256 248 243 241 239 238
237 239 243 248 253 255 255 258 261 261 263 265 269 273 277 284 287 288 290 292 291 290 290 291 294 295 288 288 286 281 282 280 281 282 281 281 281 289 285 275 264 259 259 259 247 242 240 237 236
240 243 245 249 252 255 254 256 263 262 264 267 270 273 278 283 286 286 288 289 288 288 289 289 292 293 288 287 289 285 279 278 282 279 281 280 278 282 284 270 262 258 257 255 247 246 243 240 238
239 244 246 248 248 251 255 256 262 263 265 270 271 273 277 283 284 284 285 286 285 286 289 290 290 291 289 287 285 285 280 276 278 281 281 279 277 279 276 269 262 257 257 258 255 252 247 246 244
240 243 246 248 251 252 253 256 261 268 269 270 272 274 278 281 281 281 281 284 286 287 290 292 292 290 287 285 282 280 278 276 277 276 280 281 280 275 269 266 262 259 260 260 257 256 255 249 247
241 242 248 253 255 256 258 261 262 264 265 266 271 274 278 281 282 281 281 283 286 289 291 290 291 290 286 284 280 278 275 275 277 278 280 282 281 276 273 270 267 262 261 260 260 258 257 253 249
243 240 240 245 252 258 264 263 263 264 264 264 268 273 278 281 282 282 281 283 287 291 292 293 293 291 286 285 282 278 276 276 276 277 278 277 277 276 274 274 272 266 263 262 263 263 259 256 254
245 243 243 248 252 256 262 264 264 264 264 266 268 272 277 279 279 280 281 284 287 290 291 292 293 292 290 287 282 278 279 277 274 272 272 273 273 272 273 275 275 269 267 265 266 265 261 258 256
248 250 249 248 253 258 264 268 267 266 264 266 269 271 274 276 277 279 280 282 285 287 288 291 293 291 290 288 285 281 280 277 272 271 270 268 269 269 269 270 272 270 269 266 267 267 262 259 258
252 253 253 252 252 257 264 266 264 266 267 268 270 272 274 276 278 278 280 281 284 286 288 290 291 291 288 286 281 281 281 278 275 269 267 265 267 267 267 269 269 270 271 272 270 266 262 260 259
251 254 256 257 260 261 263 268 268 268 267 267 269 272 275 276 277 278 279 282 284 286 288 290 290 289 289 285 283 282 282 279 273 272 269 265 265 265 266 268 268 269 270 272 271 268 264 262 260
Height
5912 5912 5912 5913 5914 5916 5915 5913 5912 5911 5910 5908 5907 5905 5904 5904 5904 5904 5901 5897 5897 5895 5894 5892 5891 5890 5889 5888 5887 5886 5885 5884 5884 5883 5882 5882 5881 5881 5880 5880 5880 5879 5879 5879 5878 5878 5878 5878 5878
5912 5912 5913 5914 5916 5917 5916 5913 5912 5911 5910 5908 5907 5905 5904 5903 5902 5901 5899 5898 5897 5895 5894 5893 5891 5890 5889 5887 5886 5885 5885 5884 5883 5882 5882 5881 5880 5880 5879 5879 5879 5878 5878 5877 5877 5877 5877 5877 5877
5912 5912 5914 5915 5916 5917 5915 5913 5912 5911 5909 5908 5907 5905 5904 5903 5902 5901 5899 5898 5897 5895 5894 5892 5891 5890 5889 5887 5886 5885 5884 5884 5883 5882 5881 5880 5880 5879 5879 5878 5878 5877 5877 5876 5875 5875 5875 5875 5875
5911 5913 5914 5915 5915 5915 5914 5913 5912 5911 5910 5908 5907 5905 5904 5903 5902 5901 5899 5898 5897 5895 5894 5892 5891 5890 5889 5887 5886 5885 5884 5883 5882 5881 5881 5880 5879 5878 5878 5877 5877 5876 5875 5875 5874 5874 5873 5873 5873
5911 5913 5914 5915 5914 5914 5913 5912 5912 5911 5910 5908 5907 5905 5904 5903 5901 5900 5899 5898 5896 5895 5893 5892 5891 5890 5889 5887 5886 5885 5884 5883 5882 5881 5880 5879 5878 5878 5877 5877 5876 5875 5874 5874 5873 5872 5872 5872 5872
5911 5912 5914 5914 5914 5913 5913 5912 5911 5910 5910 5908 5907 5905 5904 5903 5901 5900 5898 5897 5896 5894 5893 5892 5891 5889 5888 5887 5886 5885 5884 5883 5882 5881 5880 5879 5878 5877 5877 5876 5875 5874 5873 5872 5872 5871 5871 5870 5870
5911 5912 5913 5913 5912 5912 5912 5912 5911 5910 5909 5908 5907 5905 5904 5902 5901 5900 5898 5897 5895 5894 5892 5891 5890 5889 5888 5887 5886 5884 5883 5882 5881 5880 5879 5878 5878 5877 5876 5875 5875 5874 5872 5871 5871 5870 5869 5869 5869
5909 5911 5911 5912 5912 5912 5911 5911 5910 5910 5909 5908 5907 5906 5904 5903 5901 5899 5898 5896 5895 5894 5892 5890 5889 5888 5887 5886 5885 5884 5883 5882 5881 5880 5879 5878 5877 5876 5875 5875 5874 5873 5872 5871 5870 5869 5868 5868 5868
5907 5910 5910 5910 5911 5910 5910 5910 5909 5909 5908 5907 5906 5905 5904 5902 5901 5899 5898 5896 5895 5893 5892 5890 5889 5888 5886 5885 5884 5883 5882 5881 5880 5879 5878 5877 5876 5875 5875 5874 5873 5872 5871 5870 5869 5868 5867 5867 5866
5906 5908 5908 5908 5908 5909 5909 5908 5908 5908 5907 5906 5906 5904 5903 5901 5900 5899 5897 5896 5894 5893 5892 5890 5888 5887 5886 5884 5883 5882 5881 5880 5879 5878 5877 5876 5875 5874 5873 5873 5872 5871 5870 5869 5868 5867 5866 5866 5865
5903 5905 5905 5906 5906 5907 5907 5907 5907 5907 5906 5906 5905 5903 5902 5901 5899 5898 5897 5895 5894 5892 5891 5889 5888 5886 5885 5884 5883 5882 5881 5879 5878 5877 5876 5875 5874 5873 5872 5871 5871 5870 5869 5868 5867 5866 5865 5865 5864
5901 5902 5903 5904 5904 5905 5906 5906 5906 5906 5905 5904 5903 5902 5901 5900 5898 5897 5895 5894 5893 5891 5890 5888 5887 5885 5884 5883 5882 5881 5879 5878 5877 5876 5874 5873 5872 5871 5871 5870 5869 5868 5868 5867 5866 5865 5864 5864 5863
5899 5900 5901 5901 5902 5903 5904 5904 5904 5904 5903 5902 5902 5901 5900 5898 5897 5896 5894 5893 5892 5890 5889 5887 5886 5884 5883 5882 5880 5879 5878 5877 5876 5874 5873 5872 5871 5870 5869 5868 5867 5867 5866 5865 5864 5863 5863 5862 5862
5896 5897 5898 5899 5900 5901 5902 5902 5903 5902 5902 5901 5900 5899 5898 5897 5896 5894 5893 5892 5890 5889 5887 5886 5884 5883 5882 5880 5879 5877 5876 5875 5874 5873 5871 5870 5869 5868 5867 5866 5866 5865 5864 5863 5863 5862 5861 5861 5860
5894 5896 5897 5897 5898 5898 5900 5900 5900 5900 5900 5899 5898 5897 5897 5895 5894 5893 5891 5890 5889 5887 5886 5884 5883 5881 5880 5879 5877 5876 5874 5873 5872 5871 5870 5869 5867 5866 5865 5865 5864 5863 5862 5862 5861 5860 5859 5859 5858
5892 5894 5895 5895 5895 5896 5899 5898 5898 5897 5897 5897 5896 5896 5895 5893 5892 5891 5890 5888 5887 5885 5884 5883 5881 5880 5878 5877 5875 5874 5872 5871 5870 5869 5868 5867 5865 5864 5864 5863 5862 5862 5861 5860 5860 5859 5857 5857 5856
5889 5892 5892 5892 5892 5893 5895 5895 5895 5895 5895 5895 5894 5893 5892 5891 5890 5889 5888 5886 5885 5883 5882 5880 5879 5878 5876 5874 5873 5871 5870 5868 5867 5867 5865 5864 5863 5862 5862 5861 5860 5860 5859 5859 5858 5857 5856 5855 5855
5887 5888 5889 5889 5889 5890 5891 5892 5892 5892 5892 5892 5892 5891 5890 5889 5888 5887 5885 5884 5882 5881 5880 5878 5877 5875 5873 5871 5870 5868 5867 5866 5865 5864 5863 5862 5861 5860 5859 5858 5858 5857 5857 5857 5857 5856 5855 5854 5854
5883 5884 5885 5886 5885 5887 5888 5888 5888 5888 5889 5889 5889 5888 5888 5887 5886 5884 5883 5882 5880 5878 5877 5876 5874 5872 5870 5869 5867 5866 5864 5864 5863 5861 5860 5859 5859 5857 5856 5856 5855 5855 5855 5855 5855 5855 5855 5854 5854
5879 5881 5882 5882 5882 5884 5884 5885 5885 5885 5885 5886 5886 5885 5885 5884 5883 5882 5880 5879 5877 5876 5874 5873 5871 5869 5868 5866 5864 5863 5862 5861 5860 5859 5858 5857 5856 5855 5854 5853 5853 5853 5853 5854 5853 5853 5854 5854 5854
5875 5877 5878 5879 5879 5880 5881 5882 5882 5882 5882 5882 5882 5882 5882 5881 5880 5878 5877 5876 5874 5873 5871 5870 5868 5866 5865 5863 5861 5860 5859 5857 5856 5856 5855 5854 5853 5852 5851 5851 5851 5851 5851 5852 5851 5852 5852 5852 5853
5872 5873 5874 5875 5876 5877 5879 5880 5879 5878 5879 5879 5879 5878 5878 5877 5876 5875 5874 5872 5871 5869 5868 5866 5865 5863 5861 5860 5859 5857 5855 5854 5853 5852 5852 5851 5850 5849 5849 5848 5848 5849 5849 5850 5850 5850 5850 5851 5851
5868 5869 5870 5871 5873 5874 5874 5876 5877 5875 5875 5875 5875 5874 5874 5873 5872 5871 5870 5869 5867 5866 5864 5863 5861 5860 5858 5857 5855 5854 5852 5851 5850 5849 5849 5848 5847 5847 5846 5846 5846 5846 5847 5847 5847 5848 5848 5848 5849
5864 5866 5867 5868 5870 5871 5871 5873 5873 5872 5871 5871 5871 5870 5870 5869 5868 5867 5866 5865 5863 5862 5861 5859 5858 5856 5854 5853 5851 5850 5849 5848 5847 5846 5846 5845 5844 5843 5844 5844 5844 5844 5844 5844 5845 5845 5845 5846 5847
5861 5863 5865 5866 5867 5868 5867 5868 5869 5867 5867 5867 5867 5866 5866 5865 5864 5863 5862 5861 5860 5858 5857 5855 5853 5851 5850 5849 5847 5846 5845 5844 5843 5843 5842 5842 5841 5841 5841 5841 5840 5840 5841 5841 5842 5842 5842 5843 5843
5857 5860 5863 5865 5866 5865 5863 5863 5864 5863 5862 5862 5862 5862 5861 5861 5860 5859 5858 5856 5855 5854 5852 5850 5848 5847 5845 5844 5842 5841 5841 5840 5839 5839 5839 5838 5838 5838 5838 5838 5837 5837 5837 5838 5838 5839 5839 5839 5840
5853 5854 5857 5859 5859 5860 5860 5859 5859 5858 5858 5858 5858 5857 5857 5856 5856 5855 5853 5852 5851 5849 5847 5846 5843 5842 5840 5839 5838 5837 5836 5835 5835 5834 5834 5834 5834 5834 5834 5834 5834 5834 5834 5834 5835 5835 5835 5836 5837
5849 5850 5852 5854 5855 5856 5856 5855 5855 5853 5853 5853 5853 5852 5852 5851 5851 5850 5849 5847 5846 5844 5843 5841 5839 5838 5836 5834 5833 5832 5831 5830 5830 5830 5829 5829 5830 5830 5830 5830 5830 5830 5830 5830 5831 5831 5831 5832 5833
5845 5846 5846 5848 5850 5851 5852 5853 5849 5848 5848 5848 5848 5847 5847 5846 5845 5844 5843 5842 5840 5839 5838 5836 5834 5833 5831 5830 5828 5827 5826 5825 5824 5824 5824 5824 5824 5825 5825 5825 5826 5826 5826 5826 5826 5826 5827 5827 5828
5840 5841 5842 5843 5843 5844 5846 5848 5843 5843 5842 5842 5842 5842 5841 5840 5840 5839 5838 5836 5835 5833 5832 5831 5829 5827 5826 5824 5823 5821 5820 5819 5818 5818 5818 5818 5819 5819 5820 5820 5821 5821 5821 5821 5822 5822 5822 5823 5824